| time (UTC) | temp F | wind direction | speed MPH | gust MPH | rain 1hr in | rain 24hr in | rain mn in | humidity % | barometer mb |
| 20260906033544 | 77 | 204 | 0.0 | 1.0 | 0.00 | 0.06 | 0.06 | 99 | 1014.2 |
| 20260906033039 | 77 | 247 | 1.0 | 1.0 | 0.00 | 0.06 | 0.06 | 99 | 1014.2 |
| 20260906032536 | 78 | 266 | 0.0 | 0.0 | 0.00 | 0.06 | 0.06 | 99 | 1014.1 |
| 20260906032030 | 78 | 262 | 0.0 | 0.0 | 0.00 | 0.06 | 0.06 | 99 | 1014.1 |
| 20260906031526 | 77 | 254 | 0.0 | 0.0 | 0.00 | 0.06 | 0.06 | 99 | 1014.3 |
| 20260906031021 | 77 | 294 | 0.0 | 0.0 | 0.00 | 0.06 | 0.06 | 99 | 1014.2 |
| 20260906030520 | 77 | 299 | 0.0 | 0.0 | 0.00 | 0.06 | 0.06 | 99 | 1014.2 |
| 20260906030015 | 77 | 300 | 0.0 | 0.0 | 0.00 | 0.06 | 0.06 | 99 | 1014.0 |
| 20260906025514 | 78 | 299 | 0.0 | 0.0 | 0.00 | 0.06 | 0.06 | 99 | 1014.2 |
| 20260906025012 | 78 | 299 | 0.0 | 0.0 | 0.00 | 0.06 | 0.06 | 99 | 1014.3 |
| 20260906024508 | 77 | 303 | 0.0 | 0.0 | 0.00 | 0.06 | 0.06 | 99 | 1014.1 |
| 20260906024002 | 77 | 333 | 0.0 | 0.0 | 0.00 | 0.06 | 0.06 | 99 | 1014.1 |
| 20260906023458 | 77 | 340 | 0.0 | 0.0 | 0.00 | 0.06 | 0.06 | 99 | 1014.3 |
| 20260906022953 | 77 | 326 | 0.0 | 0.0 | 0.00 | 0.06 | 0.06 | 99 | 1014.3 |
| 20260906022448 | 77 | 325 | 0.0 | 0.0 | 0.00 | 0.06 | 0.06 | 99 | 1014.4 |
| 20260906021944 | 77 | 330 | 0.0 | 0.0 | 0.00 | 0.06 | 0.06 | 99 | 1014.4 |
| 20260906021443 | 77 | 281 | 0.0 | 0.0 | 0.00 | 0.06 | 0.06 | 99 | 1014.5 |
| 20260906020939 | 77 | 292 | 0.0 | 0.0 | 0.00 | 0.06 | 0.06 | 99 | 1014.5 |
| 20260906020433 | 77 | 284 | 0.0 | 0.0 | 0.00 | 0.06 | 0.06 | 99 | 1014.5 |
| 20260906015932 | 77 | 274 | 0.0 | 0.0 | 0.00 | 0.06 | 0.06 | 99 | 1014.6 |
| 20260906015433 | 77 | 237 | 0.0 | 1.0 | 0.00 | 0.06 | 0.06 | 99 | 1014.7 |
| 20260906014932 | 77 | 248 | 0.0 | 1.0 | 0.00 | 0.06 | 0.06 | 99 | 1014.6 |
| 20260906014432 | 78 | 222 | 1.0 | 1.0 | 0.00 | 0.06 | 0.06 | 99 | 1014.5 |
| 20260906013929 | 78 | 311 | 1.0 | 2.0 | 0.00 | 0.06 | 0.06 | 99 | 1014.7 |
| 20260906013424 | 78 | 131 | 2.0 | 3.0 | 0.00 | 0.06 | 0.06 | 99 | 1014.3 |
| 20260906012920 | 78 | 253 | 3.0 | 3.0 | 0.00 | 0.06 | 0.06 | 99 | 1014.3 |
| 20260906012420 | 78 | 177 | 3.0 | 3.0 | 0.00 | 0.06 | 0.06 | 99 | 1014.5 |
| 20260906011918 | 78 | 176 | 3.0 | 5.0 | 0.00 | 0.06 | 0.06 | 99 | 1014.5 |
| 20260906011414 | 78 | 173 | 1.0 | 1.0 | 0.00 | 0.06 | 0.06 | 99 | 1014.5 |
| 20260906010909 | 78 | 204 | 0.0 | 1.0 | 0.00 | 0.06 | 0.06 | 99 | 1014.4 |
| 20260906010405 | 78 | 155 | 1.0 | 1.0 | 0.00 | 0.06 | 0.06 | 99 | 1014.4 |
| 20260906005901 | 78 | 276 | 0.0 | 0.0 | 0.00 | 0.06 | 0.06 | 99 | 1014.3 |
| 20260906005400 | 78 | 58 | 2.0 | 2.0 | 0.00 | 0.06 | 0.06 | 99 | 1014.5 |
| 20260906004858 | 78 | 225 | 2.0 | 2.0 | 0.00 | 0.06 | 0.06 | 99 | 1014.5 |
| 20260906004353 | 78 | 182 | 3.0 | 5.0 | 0.07 | 0.06 | 0.06 | 99 | 1014.5 |
| 20260906003848 | 78 | 158 | 2.0 | 3.0 | 0.12 | 0.06 | 0.06 | 99 | 1014.6 |
| 20260906003344 | 78 | 203 | 3.0 | 5.0 | 0.12 | 0.05 | 0.05 | 99 | 1014.7 |
| 20260906002839 | 78 | 231 | 2.0 | 3.0 | 0.12 | 0.04 | 0.04 | 99 | 1014.5 |
| 20260906002338 | 78 | 150 | 0.0 | 0.0 | 0.05 | 0.03 | 0.03 | 98 | 1014.5 |
| 20260906001834 | 78 | 124 | 1.0 | 2.0 | 0.07 | 0.02 | 0.02 | 98 | 1014.7 |
| 20260906001329 | 78 | 218 | 1.0 | 2.0 | 0.07 | 0.02 | 0.02 | 97 | 1014.4 |
| 20260906000825 | 79 | 310 | 0.0 | 0.0 | 0.00 | 0.01 | 0.01 | 96 | 1014.4 |
| 20260906000319 | 79 | 296 | 0.0 | 0.0 | 0.05 | 0.01 | 0.01 | 94 | 1014.3 |
| 20260905235819 | 79 | 117 | 2.0 | 2.0 | 0.05 | 0.01 | 0.01 | 93 | 1014.3 |
| 20260905235314 | 80 | 190 | 1.0 | 1.0 | 0.00 | 0.00 | 0.00 | 91 | 1014.3 |
| 20260905234809 | 81 | 214 | 1.0 | 1.0 | 0.00 | 0.00 | 0.00 | 88 | 1014.2 |
| 20260905234304 | 81 | 278 | 0.0 | 0.0 | 0.00 | 0.00 | 0.00 | 86 | 1013.9 |
| 20260905233759 | 81 | 351 | 0.0 | 0.0 | 0.00 | 0.00 | 0.00 | 85 | 1014.3 |
| 20260905233254 | 82 | 314 | 0.0 | 1.0 | 0.00 | 0.00 | 0.00 | 84 | 1014.8 |
| 20260905232753 | 83 | 359 | 4.0 | 5.0 | 0.00 | 0.00 | 0.00 | 84 | 1015.4 |
| 20260905232249 | 84 | 325 | 1.0 | 2.0 | 0.00 | 0.00 | 0.00 | 83 | 1014.8 |
| 20260905231745 | 84 | 314 | 2.0 | 3.0 | 0.00 | 0.00 | 0.00 | 83 | 1015.0 |
| 20260905231240 | 84 | 351 | 5.0 | 7.0 | 0.00 | 0.00 | 0.00 | 83 | 1014.9 |
| 20260905230736 | 84 | 358 | 5.0 | 6.0 | 0.00 | 0.00 | 0.00 | 85 | 1014.6 |
| 20260905230234 | 84 | 353 | 3.0 | 5.0 | 0.00 | 0.00 | 0.00 | 86 | 1014.5 |
| 20260905225733 | 84 | 98 | 7.0 | 8.0 | 0.00 | 0.00 | 0.00 | 85 | 1013.5 |
| 20260905225229 | 84 | 65 | 2.0 | 5.0 | 0.00 | 0.00 | 0.00 | 84 | 1014.2 |
| 20260905224728 | 85 | 70 | 2.0 | 3.0 | 0.00 | 0.00 | 0.00 | 85 | 1014.0 |
| 20260905224223 | 85 | 161 | 3.0 | 5.0 | 0.00 | 0.00 | 0.00 | 84 | 1013.7 |
| 20260905223720 | 85 | 60 | 0.0 | 0.0 | 0.00 | 0.00 | 0.00 | 85 | 1013.6 |
| 20260905223216 | 85 | 105 | 5.0 | 6.0 | 0.00 | 0.00 | 0.00 | 85 | 1013.8 |
| 20260905222712 | 86 | 76 | 5.0 | 7.0 | 0.00 | 0.00 | 0.00 | 84 | 1013.7 |
| 20260905222211 | 87 | 93 | 2.0 | 3.0 | 0.00 | 0.00 | 0.00 | 81 | 1013.5 |
| 20260905221707 | 88 | 168 | 5.0 | 7.0 | 0.00 | 0.00 | 0.00 | 80 | 1013.5 |
| 20260905221204 | 88 | 288 | 1.0 | 2.0 | 0.00 | 0.00 | 0.00 | 79 | 1013.3 |
| 20260905220659 | 88 | 115 | 4.0 | 6.0 | 0.00 | 0.00 | 0.00 | 78 | 1012.7 |
| 20260905220155 | 89 | 78 | 3.0 | 5.0 | 0.00 | 0.00 | 0.00 | 78 | 1012.8 |
| 20260905215654 | 89 | 194 | 1.0 | 5.0 | 0.00 | 0.00 | 0.00 | 77 | 1012.4 |
| 20260905215150 | 90 | 91 | 6.0 | 7.0 | 0.00 | 0.00 | 0.00 | 76 | 1012.5 |
| 20260905214646 | 90 | 199 | 3.0 | 5.0 | 0.00 | 0.00 | 0.00 | 76 | 1012.6 |
| 20260905214141 | 89 | 173 | 3.0 | 5.0 | 0.00 | 0.00 | 0.00 | 74 | 1012.6 |
| 20260905213636 | 88 | 156 | 4.0 | 6.0 | 0.00 | 0.00 | 0.00 | 75 | 1013.1 |
| 20260905213132 | 87 | 332 | 0.0 | 0.0 | 0.00 | 0.00 | 0.00 | 77 | 1013.0 |
| 20260905212627 | 88 | 322 | 1.0 | 2.0 | 0.00 | 0.00 | 0.00 | 77 | 1012.9 |
| 20260905212126 | 87 | 119 | 2.0 | 2.0 | 0.00 | 0.00 | 0.00 | 77 | 1013.0 |
| 20260905211621 | 88 | 93 | 3.0 | 6.0 | 0.00 | 0.00 | 0.00 | 75 | 1012.9 |
| 20260905211116 | 87 | 306 | 1.0 | 2.0 | 0.00 | 0.00 | 0.00 | 80 | 1013.3 |
| 20260905210613 | 87 | 163 | 3.0 | 7.0 | 0.00 | 0.00 | 0.00 | 81 | 1013.3 |
| 20260905210108 | 87 | 82 | 5.0 | 9.0 | 0.00 | 0.00 | 0.00 | 79 | 1013.7 |
| 20260905205607 | 88 | 7 | 1.0 | 2.0 | 0.00 | 0.00 | 0.00 | 77 | 1013.9 |
| 20260905205106 | 91 | 91 | 6.0 | 8.0 | 0.00 | 0.00 | 0.00 | 78 | 1014.4 |
| 20260905204601 | 91 | 143 | 8.0 | 11.0 | 0.00 | 0.00 | 0.00 | 79 | 1013.5 |
| 20260905204056 | 91 | 155 | 1.0 | 1.0 | 0.00 | 0.00 | 0.00 | 80 | 1013.2 |
| 20260905203556 | 94 | 107 | 6.0 | 9.0 | 0.00 | 0.00 | 0.00 | 74 | 1013.3 |
| 20260905203051 | 96 | 127 | 3.0 | 5.0 | 0.00 | 0.00 | 0.00 | 67 | 1013.0 |
| 20260905202546 | 94 | 127 | 5.0 | 7.0 | 0.00 | 0.00 | 0.00 | 67 | 1013.1 |
| 20260905202042 | 95 | 159 | 3.0 | 3.0 | 0.00 | 0.00 | 0.00 | 67 | 1013.0 |
| 20260905201538 | 95 | 202 | 2.0 | 2.0 | 0.00 | 0.00 | 0.00 | 68 | 1013.1 |
| 20260905201037 | 94 | 169 | 2.0 | 2.0 | 0.00 | 0.00 | 0.00 | 68 | 1013.0 |
| 20260905200532 | 96 | 164 | 5.0 | 7.0 | 0.00 | 0.00 | 0.00 | 65 | 1013.0 |
| 20260905200032 | 97 | 211 | 3.0 | 3.0 | 0.00 | 0.00 | 0.00 | 61 | 1013.0 |
| 20260905195526 | 96 | 147 | 2.0 | 2.0 | 0.00 | 0.00 | 0.00 | 63 | 1012.9 |
| 20260905195021 | 95 | 224 | 1.0 | 1.0 | 0.00 | 0.00 | 0.00 | 65 | 1013.0 |
| 20260905194516 | 93 | 165 | 3.0 | 3.0 | 0.00 | 0.00 | 0.00 | 67 | 1013.2 |
| 20260905194015 | 94 | 225 | 5.0 | 6.0 | 0.00 | 0.00 | 0.00 | 70 | 1013.4 |
| 20260905193510 | 95 | 254 | 1.0 | 1.0 | 0.00 | 0.00 | 0.00 | 68 | 1013.7 |
| 20260905193005 | 93 | 211 | 1.0 | 2.0 | 0.00 | 0.00 | 0.00 | 74 | 1013.7 |
| 20260905192500 | 92 | 256 | 1.0 | 2.0 | 0.00 | 0.00 | 0.00 | 75 | 1013.5 |
| 20260905191956 | 94 | 334 | 1.0 | 1.0 | 0.00 | 0.00 | 0.00 | 72 | 1013.5 |
| 20260905191455 | 95 | 330 | 0.0 | 1.0 | 0.00 | 0.00 | 0.00 | 70 | 1013.6 |
| 20260905190955 | 97 | 284 | 3.0 | 3.0 | 0.00 | 0.00 | 0.00 | 66 | 1013.6 |
| 20260905190453 | 100 | 282 | 0.0 | 0.0 | 0.00 | 0.00 | 0.00 | 60 | 1013.6 |
| 20260905185951 | 102 | 274 | 2.0 | 2.0 | 0.00 | 0.00 | 0.00 | 59 | 1013.4 |
| 20260905185447 | 100 | 195 | 4.0 | 6.0 | 0.00 | 0.00 | 0.00 | 58 | 1013.5 |
| 20260905184945 | 100 | 203 | 3.0 | 6.0 | 0.00 | 0.00 | 0.00 | 61 | 1013.4 |
| 20260905184440 | 101 | 136 | 0.0 | 0.0 | 0.00 | 0.00 | 0.00 | 57 | 1013.6 |
| 20260905183939 | 101 | 173 | 1.0 | 1.0 | 0.00 | 0.00 | 0.00 | 57 | 1013.4 |
| 20260905183433 | 102 | 284 | 2.0 | 3.0 | 0.00 | 0.00 | 0.00 | 55 | 1013.4 |
| 20260905182929 | 102 | 234 | 0.0 | 1.0 | 0.00 | 0.00 | 0.00 | 57 | 1013.5 |
| 20260905182427 | 101 | 221 | 2.0 | 2.0 | 0.00 | 0.00 | 0.00 | 56 | 1013.5 |
| 20260905181923 | 101 | 243 | 2.0 | 2.0 | 0.00 | 0.00 | 0.00 | 57 | 1013.7 |
| 20260905181418 | 101 | 201 | 1.0 | 2.0 | 0.00 | 0.00 | 0.00 | 55 | 1013.6 |
| 20260905180917 | 100 | 262 | 2.0 | 2.0 | 0.00 | 0.00 | 0.00 | 58 | 1013.8 |
| 20260905180412 | 98 | 328 | 1.0 | 1.0 | 0.00 | 0.00 | 0.00 | 64 | 1013.9 |
| 20260905175907 | 99 | 251 | 3.0 | 3.0 | 0.00 | 0.00 | 0.00 | 59 | 1013.6 |
| 20260905175406 | 100 | 238 | 2.0 | 2.0 | 0.00 | 0.00 | 0.00 | 58 | 1013.9 |
| 20260905174901 | 98 | 308 | 1.0 | 1.0 | 0.00 | 0.00 | 0.00 | 60 | 1014.1 |
| 20260905174357 | 100 | 311 | 2.0 | 3.0 | 0.00 | 0.00 | 0.00 | 62 | 1014.0 |
| 20260905173852 | 97 | 224 | 1.0 | 1.0 | 0.00 | 0.00 | 0.00 | 65 | 1014.0 |
| 20260905173348 | 97 | 335 | 0.0 | 0.0 | 0.00 | 0.00 | 0.00 | 65 | 1014.3 |
| 20260905172843 | 98 | 28 | 1.0 | 2.0 | 0.00 | 0.00 | 0.00 | 65 | 1014.3 |
| 20260905172341 | 99 | 295 | 1.0 | 2.0 | 0.00 | 0.00 | 0.00 | 60 | 1014.4 |
| 20260905171838 | 98 | 268 | 1.0 | 2.0 | 0.00 | 0.00 | 0.00 | 66 | 1014.3 |
| 20260905171334 | 97 | 321 | 0.0 | 0.0 | 0.00 | 0.00 | 0.00 | 68 | 1014.2 |
| 20260905170830 | 97 | 286 | 1.0 | 2.0 | 0.00 | 0.00 | 0.00 | 67 | 1014.7 |
| 20260905170326 | 96 | 243 | 1.0 | 1.0 | 0.00 | 0.00 | 0.00 | 69 | 1014.6 |
| 20260905165825 | 98 | 298 | 2.0 | 2.0 | 0.00 | 0.00 | 0.00 | 66 | 1014.6 |
| 20260905165321 | 98 | 300 | 3.0 | 3.0 | 0.00 | 0.00 | 0.00 | 67 | 1014.5 |
| 20260905164820 | 98 | 294 | 1.0 | 1.0 | 0.00 | 0.00 | 0.00 | 68 | 1014.7 |
| 20260905164315 | 97 | 244 | 3.0 | 3.0 | 0.00 | 0.00 | 0.00 | 67 | 1014.7 |
| 20260905163811 | 98 | 200 | 2.0 | 2.0 | 0.00 | 0.00 | 0.00 | 67 | 1014.9 |
| 20260905163307 | 97 | 319 | 2.0 | 2.0 | 0.00 | 0.00 | 0.00 | 66 | 1014.9 |
| 20260905162803 | 96 | 227 | 3.0 | 3.0 | 0.00 | 0.00 | 0.00 | 68 | 1015.0 |
| 20260905162305 | 97 | 213 | 4.0 | 5.0 | 0.00 | 0.00 | 0.00 | 70 | 1015.2 |
| 20260905161757 | 97 | 234 | 3.0 | 3.0 | 0.00 | 0.00 | 0.00 | 66 | 1015.1 |
| 20260905161256 | 98 | 292 | 2.0 | 3.0 | 0.00 | 0.00 | 0.00 | 68 | 1015.3 |
| 20260905160755 | 97 | 288 | 0.0 | 0.0 | 0.00 | 0.00 | 0.00 | 67 | 1015.2 |
| 20260905160255 | 98 | 236 | 1.0 | 1.0 | 0.00 | 0.00 | 0.00 | 67 | 1015.4 |
| 20260905155749 | 97 | 308 | 1.0 | 1.0 | 0.00 | 0.00 | 0.00 | 68 | 1015.7 |
| 20260905155243 | 95 | 211 | 2.0 | 3.0 | 0.00 | 0.00 | 0.00 | 67 | 1015.6 |
| 20260905154737 | 95 | 226 | 3.0 | 3.0 | 0.00 | 0.00 | 0.00 | 70 | 1015.6 |
| 20260905154233 | 96 | 243 | 3.0 | 6.0 | 0.00 | 0.00 | 0.00 | 73 | 1015.5 |
| 20260905153728 | 97 | 268 | 2.0 | 2.0 | 0.00 | 0.00 | 0.00 | 71 | 1015.7 |
| 20260905153224 | 96 | 242 | 2.0 | 3.0 | 0.00 | 0.00 | 0.00 | 72 | 1015.8 |
| 20260905152719 | 95 | 296 | 2.0 | 3.0 | 0.00 | 0.00 | 0.00 | 74 | 1015.5 |
| 20260905152213 | 95 | 312 | 1.0 | 1.0 | 0.00 | 0.00 | 0.00 | 77 | 1015.9 |
| 20260905151713 | 95 | 272 | 1.0 | 2.0 | 0.00 | 0.00 | 0.00 | 77 | 1015.9 |
| 20260905151209 | 95 | 144 | 5.0 | 6.0 | 0.00 | 0.00 | 0.00 | 76 | 1015.7 |
| 20260905150703 | 93 | 325 | 0.0 | 0.0 | 0.00 | 0.00 | 0.00 | 80 | 1015.8 |
| 20260905150202 | 93 | 225 | 2.0 | 2.0 | 0.00 | 0.00 | 0.00 | 79 | 1015.7 |
| 20260905145700 | 93 | 186 | 3.0 | 6.0 | 0.00 | 0.00 | 0.00 | 80 | 1016.1 |
| 20260905145155 | 93 | 352 | 0.0 | 0.0 | 0.00 | 0.00 | 0.00 | 79 | 1016.1 |
| 20260905144654 | 92 | 286 | 1.0 | 2.0 | 0.00 | 0.00 | 0.00 | 81 | 1016.1 |
| 20260905144149 | 92 | 296 | 2.0 | 2.0 | 0.00 | 0.00 | 0.00 | 82 | 1016.0 |
| 20260905143648 | 92 | 254 | 0.0 | 0.0 | 0.00 | 0.00 | 0.00 | 83 | 1015.7 |
| 20260905143143 | 92 | 244 | 4.0 | 6.0 | 0.00 | 0.00 | 0.00 | 82 | 1015.8 |
| 20260905142641 | 91 | 298 | 2.0 | 3.0 | 0.00 | 0.00 | 0.00 | 84 | 1016.1 |
| 20260905142136 | 92 | 175 | 3.0 | 5.0 | 0.00 | 0.00 | 0.00 | 82 | 1016.0 |
| 20260905141636 | 91 | 178 | 1.0 | 1.0 | 0.00 | 0.00 | 0.00 | 84 | 1015.9 |
| 20260905141133 | 90 | 211 | 1.0 | 2.0 | 0.00 | 0.00 | 0.00 | 85 | 1016.1 |
| 20260905140628 | 90 | 248 | 3.0 | 3.0 | 0.00 | 0.00 | 0.00 | 85 | 1015.9 |
| 20260905140127 | 89 | 279 | 2.0 | 2.0 | 0.00 | 0.00 | 0.00 | 88 | 1015.8 |
| 20260905135622 | 89 | 210 | 2.0 | 3.0 | 0.00 | 0.00 | 0.00 | 88 | 1016.0 |
| 20260905135118 | 89 | 219 | 0.0 | 0.0 | 0.00 | 0.00 | 0.00 | 89 | 1015.9 |
| 20260905134612 | 89 | 264 | 2.0 | 3.0 | 0.00 | 0.00 | 0.00 | 88 | 1015.8 |
| 20260905134111 | 89 | 178 | 0.0 | 1.0 | 0.00 | 0.00 | 0.00 | 91 | 1015.9 |
| 20260905133607 | 88 | 199 | 1.0 | 1.0 | 0.00 | 0.00 | 0.00 | 92 | 1015.9 |
| 20260905133107 | 87 | 281 | 1.0 | 2.0 | 0.00 | 0.00 | 0.00 | 93 | 1015.9 |
| 20260905132606 | 85 | 287 | 0.0 | 1.0 | 0.00 | 0.00 | 0.00 | 98 | 1015.8 |
| 20260905132101 | 84 | 208 | 0.0 | 0.0 | 0.00 | 0.00 | 0.00 | 99 | 1015.8 |
| 20260905131556 | 84 | 259 | 1.0 | 1.0 | 0.00 | 0.00 | 0.00 | 99 | 1015.7 |
| 20260905131052 | 84 | 305 | 0.0 | 0.0 | 0.00 | 0.00 | 0.00 | 99 | 1015.8 |
| 20260905130550 | 83 | 325 | 0.0 | 1.0 | 0.00 | 0.00 | 0.00 | 99 | 1015.6 |
| 20260905130046 | 83 | 273 | 0.0 | 0.0 | 0.00 | 0.00 | 0.00 | 99 | 1015.7 |
| 20260905125545 | 83 | 299 | 0.0 | 0.0 | 0.00 | 0.00 | 0.00 | 99 | 1015.7 |
| 20260905125041 | 82 | 283 | 0.0 | 0.0 | 0.00 | 0.00 | 0.00 | 99 | 1016.1 |
| 20260905124537 | 82 | 278 | 0.0 | 1.0 | 0.00 | 0.00 | 0.00 | 99 | 1015.9 |
| 20260905124033 | 82 | 208 | 0.0 | 1.0 | 0.00 | 0.00 | 0.00 | 99 | 1016.0 |
| 20260905123528 | 83 | 260 | 0.0 | 0.0 | 0.00 | 0.00 | 0.00 | 99 | 1015.7 |
| 20260905123025 | 82 | 260 | 0.0 | 0.0 | 0.00 | 0.00 | 0.00 | 99 | 1015.7 |
| 20260905122519 | 81 | 259 | 0.0 | 0.0 | 0.00 | 0.00 | 0.00 | 99 | 1015.8 |
| 20260905122015 | 80 | 260 | 0.0 | 0.0 | 0.00 | 0.00 | 0.00 | 99 | 1015.8 |
| 20260905121515 | 80 | 260 | 0.0 | 0.0 | 0.00 | 0.00 | 0.00 | 99 | 1015.9 |
| 20260905121009 | 79 | 260 | 0.0 | 0.0 | 0.00 | 0.00 | 0.00 | 99 | 1015.7 |
| 20260905120509 | 79 | 260 | 0.0 | 0.0 | 0.00 | 0.00 | 0.00 | 99 | 1015.8 |
| 20260905120004 | 79 | 238 | 0.0 | 0.0 | 0.00 | 0.00 | 0.00 | 99 | 1015.6 |
| 20260905115503 | 79 | 238 | 0.0 | 0.0 | 0.00 | 0.00 | 0.00 | 99 | 1015.5 |
| 20260905114958 | 79 | 238 | 0.0 | 0.0 | 0.00 | 0.00 | 0.00 | 99 | 1015.5 |
| 20260905114458 | 79 | 238 | 0.0 | 0.0 | 0.00 | 0.00 | 0.00 | 99 | 1015.4 |
| 20260905113956 | 79 | 238 | 0.0 | 0.0 | 0.00 | 0.00 | 0.00 | 99 | 1015.5 |
| 20260905113452 | 79 | 236 | 0.0 | 0.0 | 0.00 | 0.00 | 0.00 | 99 | 1015.4 |
| 20260905112947 | 79 | 237 | 0.0 | 0.0 | 0.00 | 0.00 | 0.00 | 99 | 1015.4 |
| 20260905112442 | 79 | 237 | 0.0 | 0.0 | 0.00 | 0.00 | 0.00 | 99 | 1015.1 |
| 20260905111938 | 79 | 237 | 0.0 | 0.0 | 0.00 | 0.00 | 0.00 | 99 | 1015.1 |
| 20260905111438 | 78 | 237 | 0.0 | 0.0 | 0.00 | 0.00 | 0.00 | 99 | 1015.1 |
| 20260905110932 | 78 | 237 | 0.0 | 0.0 | 0.00 | 0.00 | 0.00 | 99 | 1014.9 |
| 20260905110425 | 78 | 237 | 0.0 | 0.0 | 0.00 | 0.00 | 0.00 | 99 | 1015.2 |
| 20260905105920 | 78 | 237 | 0.0 | 0.0 | 0.00 | 0.00 | 0.00 | 99 | 1014.9 |
| 20260905105420 | 78 | 237 | 0.0 | 0.0 | 0.00 | 0.00 | 0.00 | 99 | 1014.8 |
| 20260905104919 | 78 | 237 | 0.0 | 0.0 | 0.00 | 0.00 | 0.00 | 99 | 1014.8 |
| 20260905104416 | 78 | 237 | 0.0 | 0.0 | 0.00 | 0.00 | 0.00 | 99 | 1014.9 |
| 20260905103910 | 78 | 237 | 0.0 | 0.0 | 0.00 | 0.00 | 0.00 | 99 | 1014.6 |
| 20260905103405 | 78 | 237 | 0.0 | 0.0 | 0.00 | 0.00 | 0.00 | 99 | 1014.6 |
| 20260905102901 | 79 | 237 | 0.0 | 0.0 | 0.00 | 0.00 | 0.00 | 99 | 1014.7 |
| 20260905102357 | 78 | 237 | 0.0 | 0.0 | 0.00 | 0.00 | 0.00 | 99 | 1014.7 |
| 20260905101852 | 78 | 237 | 0.0 | 0.0 | 0.00 | 0.00 | 0.00 | 99 | 1014.8 |
| 20260905101350 | 78 | 237 | 0.0 | 0.0 | 0.00 | 0.00 | 0.00 | 99 | 1014.9 |
| 20260905100845 | 78 | 237 | 0.0 | 0.0 | 0.00 | 0.00 | 0.00 | 99 | 1014.8 |
| 20260905100342 | 78 | 237 | 0.0 | 0.0 | 0.00 | 0.00 | 0.00 | 99 | 1015.0 |
| 20260905095840 | 79 | 237 | 0.0 | 0.0 | 0.00 | 0.00 | 0.00 | 99 | 1015.0 |
| 20260905095335 | 78 | 237 | 0.0 | 0.0 | 0.00 | 0.00 | 0.00 | 99 | 1014.7 |
| 20260905094829 | 78 | 237 | 0.0 | 0.0 | 0.00 | 0.00 | 0.00 | 99 | 1014.8 |
| 20260905094325 | 78 | 237 | 0.0 | 0.0 | 0.00 | 0.00 | 0.00 | 99 | 1014.9 |
| 20260905093824 | 78 | 237 | 0.0 | 0.0 | 0.00 | 0.00 | 0.00 | 99 | 1015.0 |
| 20260905093320 | 78 | 237 | 0.0 | 0.0 | 0.00 | 0.00 | 0.00 | 99 | 1014.7 |
| 20260905092816 | 78 | 237 | 0.0 | 0.0 | 0.00 | 0.00 | 0.00 | 99 | 1014.7 |
| 20260905092315 | 78 | 237 | 0.0 | 0.0 | 0.00 | 0.00 | 0.00 | 99 | 1014.9 |
| 20260905091805 | 78 | 237 | 0.0 | 0.0 | 0.00 | 0.00 | 0.00 | 99 | 1014.6 |
| 20260905091304 | 79 | 237 | 0.0 | 0.0 | 0.00 | 0.00 | 0.00 | 99 | 1014.7 |
| 20260905090803 | 79 | 237 | 0.0 | 0.0 | 0.00 | 0.00 | 0.00 | 99 | 1014.6 |
| 20260905090259 | 79 | 237 | 0.0 | 0.0 | 0.00 | 0.00 | 0.00 | 99 | 1014.7 |
| 20260905085759 | 79 | 237 | 0.0 | 0.0 | 0.00 | 0.00 | 0.00 | 99 | 1014.7 |
| 20260905085258 | 78 | 237 | 0.0 | 0.0 | 0.00 | 0.00 | 0.00 | 99 | 1014.8 |
| 20260905084753 | 79 | 237 | 0.0 | 0.0 | 0.00 | 0.00 | 0.00 | 99 | 1014.8 |
| 20260905084248 | 79 | 237 | 0.0 | 0.0 | 0.00 | 0.00 | 0.00 | 99 | 1014.6 |
| 20260905083742 | 78 | 236 | 0.0 | 0.0 | 0.00 | 0.00 | 0.00 | 99 | 1014.7 |
| 20260905083238 | 79 | 237 | 0.0 | 0.0 | 0.00 | 0.00 | 0.00 | 99 | 1014.9 |
| 20260905082734 | 79 | 236 | 0.0 | 0.0 | 0.00 | 0.00 | 0.00 | 99 | 1014.8 |
| 20260905082230 | 79 | 237 | 0.0 | 0.0 | 0.00 | 0.00 | 0.00 | 99 | 1014.8 |
| 20260905081729 | 79 | 237 | 0.0 | 0.0 | 0.00 | 0.00 | 0.00 | 99 | 1014.5 |
| 20260905081224 | 79 | 236 | 0.0 | 0.0 | 0.00 | 0.00 | 0.00 | 99 | 1014.6 |
| 20260905080719 | 79 | 236 | 0.0 | 0.0 | 0.00 | 0.00 | 0.00 | 99 | 1014.7 |
| 20260905080219 | 79 | 236 | 0.0 | 0.0 | 0.00 | 0.00 | 0.00 | 99 | 1014.5 |
| 20260905075718 | 79 | 236 | 0.0 | 0.0 | 0.00 | 0.00 | 0.00 | 99 | 1014.8 |
| 20260905075217 | 79 | 236 | 0.0 | 0.0 | 0.00 | 0.00 | 0.00 | 99 | 1014.9 |
| 20260905074716 | 79 | 236 | 0.0 | 0.0 | 0.00 | 0.00 | 0.00 | 99 | 1014.9 |
| 20260905074212 | 79 | 236 | 0.0 | 0.0 | 0.00 | 0.00 | 0.00 | 99 | 1014.6 |
| 20260905073708 | 79 | 236 | 0.0 | 0.0 | 0.00 | 0.00 | 0.00 | 99 | 1014.8 |
| 20260905073203 | 79 | 236 | 0.0 | 0.0 | 0.00 | 0.00 | 0.00 | 99 | 1014.8 |
| 20260905072702 | 79 | 236 | 0.0 | 0.0 | 0.00 | 0.00 | 0.00 | 99 | 1014.8 |
| 20260905072158 | 79 | 236 | 0.0 | 0.0 | 0.00 | 0.00 | 0.00 | 99 | 1014.8 |
| 20260905071654 | 79 | 236 | 0.0 | 0.0 | 0.00 | 0.00 | 0.00 | 99 | 1014.6 |
| 20260905071150 | 79 | 236 | 0.0 | 0.0 | 0.00 | 0.00 | 0.00 | 99 | 1014.5 |
| 20260905070644 | 79 | 236 | 0.0 | 0.0 | 0.00 | 0.00 | 0.00 | 99 | 1014.8 |
| 20260905070141 | 79 | 238 | 0.0 | 0.0 | 0.00 | 0.00 | 0.00 | 99 | 1014.8 |
| 20260905065639 | 79 | 238 | 0.0 | 0.0 | 0.00 | 0.00 | 0.00 | 99 | 1014.8 |
| 20260905065133 | 80 | 238 | 0.0 | 0.0 | 0.00 | 0.00 | 0.00 | 99 | 1015.0 |
| 20260905064629 | 79 | 233 | 0.0 | 0.0 | 0.00 | 0.00 | 0.00 | 99 | 1014.9 |
| 20260905064124 | 79 | 230 | 0.0 | 0.0 | 0.00 | 0.00 | 0.00 | 99 | 1015.0 |
| 20260905063622 | 80 | 237 | 0.0 | 0.0 | 0.00 | 0.00 | 0.00 | 99 | 1015.1 |
| 20260905063119 | 80 | 236 | 0.0 | 0.0 | 0.00 | 0.00 | 0.00 | 99 | 1015.1 |
| 20260905062615 | 80 | 238 | 0.0 | 0.0 | 0.00 | 0.00 | 0.00 | 99 | 1015.0 |
| 20260905062114 | 80 | 238 | 0.0 | 0.0 | 0.00 | 0.00 | 0.00 | 99 | 1015.1 |
| 20260905061608 | 80 | 238 | 0.0 | 0.0 | 0.00 | 0.00 | 0.00 | 99 | 1015.2 |
| 20260905061103 | 80 | 238 | 0.0 | 0.0 | 0.00 | 0.00 | 0.00 | 99 | 1015.5 |
| 20260905060559 | 80 | 238 | 0.0 | 0.0 | 0.00 | 0.00 | 0.00 | 99 | 1015.5 |
| 20260905060054 | 80 | 236 | 0.0 | 0.0 | 0.00 | 0.00 | 0.00 | 99 | 1015.3 |
| 20260905055553 | 80 | 236 | 0.0 | 0.0 | 0.00 | 0.00 | 0.00 | 99 | 1015.5 |
| 20260905055048 | 80 | 238 | 0.0 | 0.0 | 0.00 | 0.00 | 0.00 | 99 | 1015.6 |
| 20260905054544 | 80 | 238 | 0.0 | 0.0 | 0.00 | 0.00 | 0.00 | 99 | 1015.5 |
| 20260905054039 | 80 | 238 | 0.0 | 0.0 | 0.00 | 0.00 | 0.00 | 99 | 1015.9 |
| 20260905053538 | 80 | 238 | 0.0 | 0.0 | 0.00 | 0.00 | 0.00 | 99 | 1015.8 |
| 20260905053034 | 80 | 196 | 0.0 | 0.0 | 0.00 | 0.00 | 0.00 | 99 | 1015.9 |
| 20260905052533 | 80 | 238 | 0.0 | 0.0 | 0.00 | 0.00 | 0.00 | 99 | 1016.0 |
| 20260905052028 | 80 | 238 | 0.0 | 0.0 | 0.00 | 0.00 | 0.00 | 99 | 1015.9 |
| 20260905051524 | 80 | 238 | 0.0 | 0.0 | 0.00 | 0.00 | 0.00 | 99 | 1016.3 |
| 20260905051021 | 80 | 238 | 0.0 | 0.0 | 0.00 | 0.00 | 0.00 | 99 | 1016.3 |
| 20260905050516 | 80 | 238 | 0.0 | 0.0 | 0.00 | 0.00 | 0.00 | 99 | 1016.1 |
| 20260905050013 | 80 | 238 | 0.0 | 0.0 | 0.00 | 0.00 | 0.00 | 99 | 1016.2 |
| 20260905045507 | 80 | 238 | 0.0 | 0.0 | 0.00 | 0.00 | 0.00 | 99 | 1016.3 |
| 20260905045002 | 80 | 271 | 0.0 | 0.0 | 0.00 | 0.00 | 0.00 | 99 | 1016.3 |
| 20260905044457 | 80 | 271 | 0.0 | 0.0 | 0.00 | 0.00 | 0.00 | 99 | 1016.5 |
| 20260905043957 | 80 | 271 | 0.0 | 0.0 | 0.00 | 0.00 | 0.00 | 99 | 1016.5 |
| 20260905043456 | 81 | 271 | 0.0 | 0.0 | 0.00 | 0.00 | 0.00 | 99 | 1016.2 |
| 20260905042951 | 81 | 271 | 0.0 | 0.0 | 0.00 | 0.00 | 0.00 | 99 | 1016.4 |
| 20260905042450 | 81 | 271 | 0.0 | 0.0 | 0.00 | 0.00 | 0.00 | 99 | 1016.5 |
| 20260905041946 | 81 | 271 | 0.0 | 0.0 | 0.00 | 0.00 | 0.00 | 99 | 1016.5 |
| 20260905041442 | 81 | 270 | 0.0 | 0.0 | 0.00 | 0.00 | 0.00 | 99 | 1016.6 |
| 20260905040936 | 81 | 270 | 0.0 | 0.0 | 0.00 | 0.00 | 0.00 | 99 | 1016.5 |
| 20260905040436 | 81 | 270 | 0.0 | 0.0 | 0.00 | 0.00 | 0.00 | 99 | 1016.4 |
| 20260905035935 | 81 | 270 | 0.0 | 0.0 | 0.00 | 0.05 | 0.05 | 99 | 1016.5 |
| 20260905035431 | 81 | 268 | 0.0 | 0.0 | 0.00 | 0.05 | 0.05 | 99 | 1016.6 |
| 20260905034928 | 81 | 268 | 0.0 | 0.0 | 0.00 | 0.05 | 0.05 | 99 | 1016.7 |
| 20260905034423 | 81 | 268 | 0.0 | 0.0 | 0.00 | 0.05 | 0.05 | 99 | 1016.3 |
| 20260905033922 | 81 | 268 | 0.0 | 0.0 | 0.00 | 0.05 | 0.05 | 99 | 1016.6 |